timestamp,surface_pressure_avg,surface_temp_avg,battery_voltage,lat,long
2019-10-10 00:00:00+00:00,281.7796,9.69,12.97,47.84626,-54.09684
2019-10-10 00:10:00+00:00,278.0897,9.69,12.81,47.84626,-54.09684
2019-10-10 00:20:00+00:00,265.1731,9.69,12.97,47.84626,-54.09684
2019-10-10 00:30:00+00:00,258.0914,9.7,12.97,47.84626,-54.09684
2019-10-10 00:40:00+00:00,257.2964,9.7,12.97,47.84626,-54.09684
2019-10-10 00:50:00+00:00,253.9081,9.7,12.97,47.84626,-54.09684
2019-10-10 01:00:00+00:00,246.123,9.7,12.89,47.84626,-54.09684
2019-10-10 01:10:00+00:00,245.9747,9.7,12.81,47.84626,-54.09684
2019-10-10 01:20:00+00:00,245.0164,9.7,12.89,47.84626,-54.09684
2019-10-10 01:30:00+00:00,233.3831,9.7,12.97,47.84626,-54.09684
2019-10-10 01:40:00+00:00,226.8781,9.7,12.97,47.84626,-54.09684
2019-10-10 01:50:00+00:00,228.0864,9.7,12.97,47.84626,-54.09684
2019-10-10 02:00:00+00:00,225.9931,9.7,12.89,47.84626,-54.09684
2019-10-10 02:10:00+00:00,219.0848,9.7,12.81,47.84626,-54.09684
2019-10-10 02:20:00+00:00,214.9931,9.7,12.89,47.84626,-54.09684
2019-10-10 02:30:00+00:00,213.9215,9.7,12.89,47.84626,-54.09684
2019-10-10 02:40:00+00:00,211.8948,9.7,12.97,47.84626,-54.09684
2019-10-10 02:50:00+00:00,212.0414,9.7,12.97,47.84626,-54.09684
2019-10-10 03:00:00+00:00,214.5981,9.69,12.89,47.84626,-54.09684
2019-10-10 03:10:00+00:00,212.4131,9.7,12.81,47.84626,-54.09684
2019-10-10 03:20:00+00:00,209.7114,9.7,12.89,47.84626,-54.09684
2019-10-10 03:30:00+00:00,213.6031,9.7,12.89,47.84626,-54.09684
2019-10-10 03:40:00+00:00,213.9048,9.7,12.97,47.84626,-54.09684
2019-10-10 03:50:00+00:00,207.9031,9.7,12.97,47.84626,-54.09684
2019-10-10 04:00:00+00:00,208.8815,9.7,12.89,47.84626,-54.09684
2019-10-10 04:10:00+00:00,214.0315,9.7,12.81,47.84626,-54.09684
2019-10-10 04:20:00+00:00,220.0348,9.7,12.89,47.84626,-54.09684
2019-10-10 04:30:00+00:00,223.9048,9.7,12.89,47.84626,-54.09684
2019-10-10 04:40:00+00:00,224.2548,9.7,12.97,47.84626,-54.09684
2019-10-10 04:50:00+00:00,228.0131,9.7,12.97,47.84626,-54.09684
2019-10-10 05:00:00+00:00,233.5147,9.7,12.89,47.84626,-54.09684
2019-10-10 05:10:00+00:00,235.9814,9.7,12.81,47.84626,-54.09684
2019-10-10 05:20:00+00:00,237.0147,9.7,12.89,47.84626,-54.09684
2019-10-10 05:30:00+00:00,240.2381,9.7,12.89,47.84626,-54.09684
2019-10-10 05:40:00+00:00,241.1998,9.7,12.97,47.84626,-54.09684
2019-10-10 05:50:00+00:00,241.5031,9.7,12.97,47.84626,-54.09684
2019-10-10 06:00:00+00:00,245.7331,9.68,12.89,47.84626,-54.09684
2019-10-10 06:10:00+00:00,253.0881,9.61,12.81,47.84626,-54.09684
2019-10-10 06:20:00+00:00,258.0631,9.6,12.89,47.84626,-54.09684
2019-10-10 06:30:00+00:00,263.678,9.6,12.89,47.84626,-54.09684
2019-10-10 06:40:00+00:00,267.7831,9.6,12.97,47.84626,-54.09684
2019-10-10 06:50:00+00:00,274.1597,9.6,12.97,47.84626,-54.09684
2019-10-10 07:00:00+00:00,278.858,9.6,12.89,47.84626,-54.09684
2019-10-10 07:10:00+00:00,283.0731,9.6,12.81,47.84626,-54.09684
2019-10-10 07:20:00+00:00,287.0414,9.6,12.89,47.84626,-54.09684
2019-10-10 07:30:00+00:00,295.0413,9.6,12.89,47.84626,-54.09684
2019-10-10 07:40:00+00:00,296.4747,9.6,12.89,47.84626,-54.09684
2019-10-10 07:50:00+00:00,297.5547,9.6,12.97,47.84626,-54.09684
2019-10-10 08:00:00+00:00,303.0514,9.6,12.81,47.84626,-54.09684
2019-10-10 08:10:00+00:00,310.3397,9.6,12.81,47.84626,-54.09684
2019-10-10 08:20:00+00:00,307.8231,9.59,12.89,47.84626,-54.09684
2019-10-10 08:30:00+00:00,310.3897,9.6,12.89,47.84626,-54.09684
2019-10-10 08:40:00+00:00,314.8597,9.59,12.89,47.84626,-54.09684
2019-10-10 08:50:00+00:00,312.6863,9.59,12.89,47.84626,-54.09684
2019-10-10 09:00:00+00:00,307.5563,9.6,12.81,47.84626,-54.09684
2019-10-10 09:10:00+00:00,312.5413,9.6,12.81,47.84626,-54.09684
2019-10-10 09:20:00+00:00,316.3547,9.6,12.89,47.84626,-54.09684
2019-10-10 09:30:00+00:00,312.713,9.6,12.89,47.84626,-54.09684
2019-10-10 09:40:00+00:00,311.0463,9.6,12.89,47.84626,-54.09684
2019-10-10 09:50:00+00:00,317.1379,9.59,12.89,47.84626,-54.09684
2019-10-10 10:00:00+00:00,319.883,9.6,12.89,47.84626,-54.09684
2019-10-10 10:10:00+00:00,316.5046,9.6,12.89,47.84626,-54.09684
2019-10-10 10:20:00+00:00,312.8548,9.6,13.29,47.84626,-54.09684
2019-10-10 10:30:00+00:00,313.9896,9.59,13.6,47.84626,-54.09684
2019-10-10 10:40:00+00:00,314.3763,9.6,13.92,47.84626,-54.09684
2019-10-10 10:50:00+00:00,311.6996,9.6,14.4,47.84626,-54.09684
2019-10-10 11:00:00+00:00,310.228,9.59,14.64,47.84626,-54.09684
2019-10-10 11:10:00+00:00,314.368,9.59,15.51,47.84626,-54.09684
2019-10-10 11:20:00+00:00,310.763,9.6,16.39,47.84626,-54.09684
2019-10-10 11:30:00+00:00,303.6863,9.6,16.47,47.84626,-54.09684
2019-10-10 11:40:00+00:00,299.413,9.6,16.55,47.84626,-54.09684
2019-10-10 11:50:00+00:00,296.723,9.6,16.47,47.84626,-54.09684
2019-10-10 12:00:00+00:00,288.4263,9.6,15.2,47.84626,-54.09684
2019-10-10 12:10:00+00:00,283.238,9.6,15.2,47.84626,-54.09684
2019-10-10 12:20:00+00:00,282.3698,9.6,15.44,47.84626,-54.09684
2019-10-10 12:30:00+00:00,276.418,9.6,15.27,47.84626,-54.09684
2019-10-10 12:40:00+00:00,265.8714,9.6,15.2,47.84626,-54.09684
2019-10-10 12:50:00+00:00,260.2814,9.6,15.2,47.84626,-54.09684
2019-10-10 13:00:00+00:00,258.2781,9.6,14.96,47.84626,-54.09684
2019-10-10 13:10:00+00:00,253.3214,9.6,14.96,47.84626,-54.09684
2019-10-10 13:20:00+00:00,246.6614,9.6,15.04,47.84626,-54.09684
2019-10-10 13:30:00+00:00,242.5664,9.6,14.96,47.84626,-54.09684
2019-10-10 13:40:00+00:00,235.7748,9.6,14.96,47.84626,-54.09684
2019-10-10 13:50:00+00:00,227.6197,9.6,14.96,47.84626,-54.09684
2019-10-10 14:00:00+00:00,226.4415,9.6,14.8,47.84626,-54.09684
2019-10-10 14:10:00+00:00,224.3381,9.6,14.8,47.84626,-54.09684
2019-10-10 14:20:00+00:00,217.6714,9.6,14.88,47.84626,-54.09684
2019-10-10 14:30:00+00:00,212.0648,9.6,14.8,47.84626,-54.09684
2019-10-10 14:40:00+00:00,212.2565,9.6,14.8,47.84626,-54.09684
2019-10-10 14:50:00+00:00,210.9998,9.6,14.8,47.84626,-54.09684
2019-10-10 15:00:00+00:00,202.7548,9.6,14.64,47.84626,-54.09684
2019-10-10 15:10:00+00:00,195.6281,9.59,14.64,47.84626,-54.09684
2019-10-10 15:20:00+00:00,196.5465,9.6,14.72,47.84626,-54.09684
2019-10-10 15:30:00+00:00,199.0281,9.6,14.72,47.84626,-54.09684
2019-10-10 15:40:00+00:00,195.5148,9.6,14.72,47.84626,-54.09684
2019-10-10 15:50:00+00:00,193.7498,9.6,14.64,47.84626,-54.09684
2019-10-10 16:00:00+00:00,199.4031,9.6,14.56,47.84626,-54.09684
2019-10-10 16:10:00+00:00,203.3748,9.61,14.56,47.84626,-54.09684
2019-10-10 16:20:00+00:00,201.9498,9.64,14.64,47.84626,-54.09684
2019-10-10 16:30:00+00:00,203.2131,9.64,14.56,47.84626,-54.09684
2019-10-10 16:40:00+00:00,207.6798,9.65,14.56,47.84626,-54.09684
2019-10-10 16:50:00+00:00,212.8314,9.65,14.56,47.84626,-54.09684
2019-10-10 17:00:00+00:00,216.4448,9.66,14.48,47.84626,-54.09684
2019-10-10 17:10:00+00:00,222.1381,9.66,14.4,47.84626,-54.09684
2019-10-10 17:20:00+00:00,228.5981,9.66,14.48,47.84626,-54.09684
2019-10-10 17:30:00+00:00,230.9799,9.67,14.48,47.84626,-54.09684
2019-10-10 17:40:00+00:00,235.0898,9.69,14.48,47.84626,-54.09684
2019-10-10 17:50:00+00:00,240.5631,9.69,14.4,47.84626,-54.09684
2019-10-10 18:00:00+00:00,241.728,9.7,14.32,47.84626,-54.09684
2019-10-10 18:10:00+00:00,242.4482,9.69,14.24,47.84626,-54.09684
2019-10-10 18:20:00+00:00,245.1064,9.69,14.32,47.84626,-54.09684
2019-10-10 18:30:00+00:00,248.7314,9.69,14.32,47.84626,-54.09684
2019-10-10 18:40:00+00:00,251.4098,9.69,14.24,47.84626,-54.09684
2019-10-10 18:50:00+00:00,257.3814,9.69,14.24,47.84626,-54.09684
2019-10-10 19:00:00+00:00,266.2948,9.69,14.08,47.84626,-54.09684
2019-10-10 19:10:00+00:00,271.5447,9.7,14.0,47.84626,-54.09684
2019-10-10 19:20:00+00:00,272.6947,9.7,14.0,47.84626,-54.09684
2019-10-10 19:30:00+00:00,278.183,9.7,14.0,47.84626,-54.09684
2019-10-10 19:40:00+00:00,288.9681,9.69,13.92,47.84626,-54.09684
2019-10-10 19:50:00+00:00,294.1164,9.69,13.92,47.84626,-54.09684
2019-10-10 20:00:00+00:00,294.9913,9.7,13.84,47.84626,-54.09684
2019-10-10 20:10:00+00:00,303.1914,9.65,13.68,47.84626,-54.09684
2019-10-10 20:20:00+00:00,312.9496,9.62,13.6,47.84626,-54.09684
2019-10-10 20:30:00+00:00,312.2597,9.65,13.6,47.84626,-54.09684
2019-10-10 20:40:00+00:00,312.9463,9.68,13.53,47.84626,-54.09684
2019-10-10 20:50:00+00:00,322.728,9.63,13.53,47.84626,-54.09684
2019-10-10 21:00:00+00:00,330.5879,9.64,13.37,47.84626,-54.09684
2019-10-10 21:10:00+00:00,326.0847,9.67,13.21,47.84626,-54.09684
2019-10-10 21:20:00+00:00,328.4796,9.69,13.21,47.84626,-54.09684
2019-10-10 21:30:00+00:00,332.083,9.69,13.21,47.84626,-54.09684
2019-10-10 21:40:00+00:00,333.6912,9.69,13.21,47.84626,-54.09684
2019-10-10 21:50:00+00:00,331.4715,9.67,13.13,47.84626,-54.09684
2019-10-10 22:00:00+00:00,331.7613,9.64,13.05,47.84626,-54.09684
2019-10-10 22:10:00+00:00,329.4213,9.64,12.97,47.84626,-54.09684
2019-10-10 22:20:00+00:00,326.933,9.61,12.97,47.84626,-54.09684
2019-10-10 22:30:00+00:00,327.8979,9.6,12.97,47.84626,-54.09684
2019-10-10 22:40:00+00:00,326.1314,9.6,12.97,47.84626,-54.09684
2019-10-10 22:50:00+00:00,323.1797,9.6,13.05,47.84626,-54.09684
2019-10-10 23:00:00+00:00,322.5146,9.6,12.97,47.84626,-54.09684
2019-10-10 23:10:00+00:00,322.0696,9.6,12.89,47.84626,-54.09684
2019-10-10 23:20:00+00:00,317.7064,9.6,12.97,47.84626,-54.09684
2019-10-10 23:30:00+00:00,312.2864,9.6,12.97,47.84626,-54.09684
2019-10-10 23:40:00+00:00,311.0146,9.6,12.97,47.84626,-54.09684
2019-10-10 23:50:00+00:00,304.9164,9.6,12.97,47.84626,-54.09684
